Santa Rosa, CA

5:40 PM PDT on August 16, 2017 (GMT -0700)
Sonoma County

Weather History for KSTS - October, 2014

Change the Weather History Date:

Monday, October 6, 2014

  Actual Average Record
Temperature  
Mean Temperature 70 °F 63 °F  
Max Temperature 94 °F 80 °F 94 °F (2002)
Min Temperature 46 °F 46 °F 38 °F (2009)
Degree Days  
Heating Degree Days 0    
Month to date heating degree days 0  
Since 1 July heating degree days 14  
Cooling Degree Days 5    
Month to date cooling degree days 37  
Year to date cooling degree days 470  
Growing Degree Days 20 (Base 50)    
Moisture  
Dew Point 49 °F    
Average Humidity 61    
Maximum Humidity 100    
Minimum Humidity 21    
Precipitation  
Precipitation 0.00 in 0.03 in 0.08 in (2011)
Month to date precipitation 0.00 0.15  
Year to date precipitation 13.41 22.68  
Since 1 July precipitation 0.84  
Sea Level Pressure  
Sea Level Pressure 29.88 in    
Wind  
Wind Speed 2 mph (SSE)    
Max Wind Speed 13 mph    
Max Gust Speed 15 mph    
Visibility 7 miles    
Events Fog    
T = Trace of Precipitation, MM = Missing Value Source: NWS Daily Summary

Daily Weather History Graph

Daily Weather History Graph

Search for Another Location

Airport or City:

Trip Planner

Search our weather history database for the weather conditions in past years. The results will help you decide how hot, cold, wet, or windy it might be!

Date:

Astronomy

Oct. 06, 2014 Rise Set
Actual Time 7:11 AM PDT 6:46 PM PDT
Civil Twilight 6:45 AM PDT 7:12 PM PDT
Nautical Twilight 6:14 AM PDT 7:43 PM PDT
Astronomical Twilight 5:43 AM PDT 8:14 PM PDT
Moon 5:45 PM PDT (10/6) 5:06 AM PDT (10/6)
Length of Visible Light 12h 27m
Length of Day
11h 34m
Waxing Gibbous, 96% of the Moon is Illuminated
Oct 6
Waxing Gibbous
Oct 8
Full
Oct 15
Last Quarter
Oct 23
New
Oct 30
First Quarter

Hourly Weather History & Observations

Time (PDT) Temp. Dew Point Humidity Pressure Visibility Wind Dir Wind Speed Gust Speed Precip Events Conditions
12:53 AM 54.0 °F 51.1 °F 90% 29.88 in 10.0 mi Calm Calm - N/A   Clear
1:53 AM 53.1 °F 51.1 °F 93% 29.89 in 10.0 mi Calm Calm - N/A   Clear
2:53 AM 52.0 °F 50.0 °F 93% 29.89 in 10.0 mi Calm Calm - N/A   Clear
3:53 AM 52.0 °F 50.0 °F 93% 29.88 in 10.0 mi Calm Calm - N/A   Clear
4:53 AM 50.0 °F 48.0 °F 93% 29.89 in 10.0 mi Calm Calm - N/A   Clear
5:23 AM 48.2 °F 46.4 °F 93% 29.90 in 10.0 mi Calm Calm - N/A   Scattered Clouds
5:32 AM 48.2 °F 46.4 °F 93% 29.90 in 9.0 mi Calm Calm - N/A   Mostly Cloudy
5:36 AM 48.2 °F 46.4 °F 93% 29.90 in 1.2 mi Calm Calm - N/A   Mostly Cloudy
5:44 AM 48.2 °F 48.2 °F 100% 29.90 in 0.5 mi Calm Calm - N/A Fog Fog
5:53 AM 48.9 °F 48.0 °F 97% 29.88 in 0.5 mi Calm Calm - N/A Fog Fog
6:05 AM 48.2 °F 46.4 °F 93% 29.90 in 2.0 mi Calm Calm - N/A   Scattered Clouds
6:12 AM 48.2 °F 46.4 °F 93% 29.90 in 10.0 mi Calm Calm - N/A   Partly Cloudy
6:27 AM 48.2 °F 46.4 °F 93% 29.91 in 2.5 mi Calm Calm - N/A   Mostly Cloudy
6:35 AM 48.2 °F 46.4 °F 93% 29.91 in 1.0 mi Calm Calm - N/A   Mist
6:43 AM 48.2 °F 46.4 °F 93% 29.91 in 0.8 mi Calm Calm - N/A   Mist
6:50 AM 48.2 °F 46.4 °F 93% 29.91 in 2.5 mi Calm Calm - N/A   Mostly Cloudy
6:53 AM 48.0 °F 46.9 °F 96% 29.89 in 4.0 mi Calm Calm - N/A   Mostly Cloudy
6:57 AM 48.2 °F 46.4 °F 93% 29.91 in 4.0 mi Calm Calm - N/A   Mostly Cloudy
7:21 AM 46.4 °F 46.4 °F 100% 29.91 in 0.5 mi Calm Calm - N/A Fog Fog
7:53 AM 48.0 °F 46.9 °F 96% 29.91 in 0.5 mi Calm Calm - N/A Fog Fog
8:23 AM 51.8 °F 51.8 °F 100% 29.92 in 3.0 mi Calm Calm - N/A   Mostly Cloudy
8:35 AM 53.6 °F 51.8 °F 94% 29.92 in 3.0 mi Calm Calm - N/A   Scattered Clouds
8:53 AM 55.0 °F 51.1 °F 86% 29.91 in 10.0 mi Calm Calm - N/A   Clear
9:53 AM 62.1 °F 53.1 °F 72% 29.92 in 10.0 mi Calm Calm - N/A   Clear
10:53 AM 68.0 °F 51.1 °F 55% 29.91 in 10.0 mi Calm Calm - N/A   Clear
11:53 AM 77.0 °F 50.0 °F 39% 29.89 in 10.0 mi Calm Calm - N/A   Clear
12:53 PM 84.0 °F 48.9 °F 29% 29.87 in 10.0 mi SSE 5.8 mph - N/A   Clear
1:53 PM 89.1 °F 45.0 °F 22% 29.84 in 10.0 mi SSE 3.5 mph - N/A   Clear
2:53 PM 91.9 °F 46.0 °F 21% 29.82 in 10.0 mi South 4.6 mph - N/A   Partly Cloudy
3:53 PM 93.0 °F 48.0 °F 21% 29.81 in 10.0 mi South 8.1 mph - N/A   Scattered Clouds
4:53 PM 89.1 °F 46.9 °F 23% 29.80 in 10.0 mi South 9.2 mph - N/A   Scattered Clouds
5:53 PM 84.0 °F 48.0 °F 28% 29.80 in 10.0 mi SSE 9.2 mph - N/A   Scattered Clouds
6:53 PM 66.9 °F 51.1 °F 57% 29.81 in 10.0 mi SSE 8.1 mph - N/A   Scattered Clouds
7:53 PM 60.1 °F 52.0 °F 75% 29.83 in 10.0 mi SSE 5.8 mph - N/A   Clear
8:53 PM 57.9 °F 52.0 °F 81% 29.85 in 10.0 mi SSE 4.6 mph - N/A   Clear
9:53 PM 55.9 °F 52.0 °F 87% 29.86 in 10.0 mi Calm Calm - N/A   Clear
10:53 PM 55.0 °F 52.0 °F 89% 29.87 in 10.0 mi Calm Calm - N/A   Clear
11:53 PM 54.0 °F 52.0 °F 93% 29.87 in 10.0 mi Calm Calm - N/A   Clear